Погода в Сале

Марокко     34°03′11″N   6°47′53″W
темп.,
°C
ветер,
м/с
пор.,
м/с
влажн.,
%
обл.,
%
осадки,
мм/ч
давл.,
гПа
погр.,
м
19 января, ср
ср1901:00+13вюв1170100 0.0 102841
04:00+12в117196 0.0 102736
07:00+11в227395 0.0 102743
10:00+13вюв22667 0.0 102897
13:00+18с224732 0.0 1027557
16:00+18с434964 0.0 1025663
19:00+13с34714 0.0 1025102
22:00+11всв22770 0.0 102769
20 января, чт
чт2001:00+11вюв22740 0.0 102649
04:00+10юв22730 0.0 102542
07:00+10вюв22710 0.0 102451
10:00+12вюв22599 0.0 102499
13:00+18ссв224113 0.0 1023516
16:00+18ссз3244100 0.0 1021603
19:00+13с3472100 0.0 1021139
22:00+11в2278100 0.0 102255
21 января, пт
пт2101:00+11юв217296 0.0 102241
04:00+10вюв226920 0.0 102140
07:00+10юв22670 0.0 102043
10:00+12юв12584 0.0 102177
13:00+17с11455 0.0 1021456
16:00+17ссз424875 0.0 1019512
19:00+13с2269100 0.0 102070
22:00+12вюв2274100 0.0 102156
22 января, сб
сб2201:00+11юв1269100 0.0 102140
04:00+12ююв126585 0.0 102147
07:00+12вюв236398 0.0 102150
10:00+14юв245458 0.0 1022105
13:00+20вюв12445 0.0 1021527
16:00+21с324350 0.0 1020917
19:00+16св45625 0.0 102172
22:00+14в35626 0.0 102281
23 января, вс
вс2301:00+14вюв23605 0.0 102141
04:00+14вюв22595 0.0 102034
07:00+14вюв22560 0.0 102033
10:00+16вюв22504 0.0 102170
13:00+22св22395 0.0 1021399
16:00+22ссв43424 0.0 1019764
19:00+17ссв45645 0.0 102075
22:00+14в22675 0.0 102248